Flag for Germany Weather past 2 weeks in Geesthacht, Schleswig-Holstein, Germany

Now
57 °F

Passing clouds.


Feels Like: 54 °F
Forecast: 51 / 63 °F
Wind: 13 mph from West

Location: Hamburg-Fuhlsbuettel

Current Time: Sep 5, 2015 at 6:20:53 PM

Latest Report: Sep 5, 2015 at 5:50 PM


Visibility: N/A

Pressure: 29.77 "Hg

Humidity: 77%

Dew point: 50 °F

Location of GeesthachtLocation

Historic Weather in Geesthacht — Graph

°F

Geesthacht temperature yesterday

Maximum temperature yesterday: 63 °F (at 4:20 PM)
Minimum temperature yesterday: 50 °F (at 2:50 AM)
Average temperature yesterday: 57 °F

Past Weeks' High & Low Weather Summary

 TemperatureHumidityPressure
High82 °F (Aug 31, 4:50 PM)100% (Aug 22, 2:50 AM)30.24 "Hg (Aug 22, 2:50 AM)
Low48 °F (Sep 3, 6:50 AM)30% (Aug 22, 12:50 PM)29.59 "Hg (Aug 24, 7:20 PM)
Average63 °F75%29.91 "Hg
* Reported Aug 21 5:20 PM — Sep 5 5:20 PM, Geesthacht, Weather by CustomWeather, © 2015

Note: Actual official high and low records may vary slightly from our data, if they occured in-between our weather recording intervals... More about our weather records

Advertising

Geesthacht weather history for previous 24 hours

 ConditionsComfort  
Time TempWeatherWind HumidityBarometerVisibility
5:20 PM
Sat, Sep 5
59 °FSprinkles. Partly sunny.24 mph63%29.77 "HgN/A
4:50 PM59 °FScattered clouds.18 mph63%29.77 "HgN/A
4:20 PM59 °FScattered clouds.23 mph68%29.77 "HgN/A
3:50 PM57 °FScattered showers. Scattered clouds.20 mph77%29.77 "HgN/A
3:20 PM61 °FScattered showers. Scattered clouds.22 mph63%29.77 "HgN/A
2:50 PM61 °FScattered clouds.22 mph63%29.77 "HgN/A
2:20 PM59 °FPartly sunny.17 mph63%29.74 "HgN/A
1:50 PM59 °FScattered clouds.16 mph77%29.74 "HgN/A
1:20 PM55 °FScattered showers. Scattered clouds.10 mph94%29.74 "HgN/A
12:20 PM57 °FRain showers. Broken clouds.9 mph88%29.74 "Hg4 mi
11:50 AM55 °FRain showers. Partly sunny.14 mph94%29.71 "Hg5 mi
11:20 AM57 °FSprinkles. Scattered clouds.17 mph94%29.71 "HgN/A
10:50 AM57 °FScattered showers. Partly sunny.16 mph94%29.71 "HgN/A
10:20 AM55 °FSprinkles. Broken clouds.14 mph94%29.71 "HgN/A
9:50 AM55 °FRain showers. Partly sunny.14 mph94%29.74 "Hg4 mi
9:20 AM55 °FScattered showers. Partly sunny.14 mph94%29.74 "HgN/A
8:50 AM55 °FPartly sunny.13 mph94%29.74 "HgN/A
8:20 AM55 °FSprinkles. Scattered clouds.12 mph94%29.74 "HgN/A
7:50 AM55 °FSprinkles. Partly sunny.10 mph94%29.74 "HgN/A
7:20 AM54 °FSprinkles. Partly cloudy.12 mph100%29.74 "Hg4 mi
6:50 AM54 °FPassing clouds.9 mph94%29.71 "HgN/A
6:20 AM54 °FPassing clouds.8 mph94%29.71 "HgN/A
5:50 AM54 °FPassing clouds.7 mph94%29.71 "HgN/A
5:20 AM55 °FSprinkles. Passing clouds.9 mph94%29.71 "HgN/A
4:50 AM55 °FSprinkles. Passing clouds.9 mph94%29.71 "HgN/A
4:20 AM55 °FPassing clouds.8 mph94%29.71 "HgN/A
3:50 AM55 °FPassing clouds.8 mph94%29.71 "HgN/A
3:20 AM57 °FPassing clouds.10 mph88%29.71 "HgN/A
2:50 AM57 °FLight rain. Partly cloudy.12 mph94%29.68 "HgN/A
2:20 AM55 °FLight rain. Passing clouds.10 mph100%29.68 "Hg5 mi
1:50 AM55 °FLight rain. Passing clouds.15 mph94%29.68 "Hg5 mi
1:20 AM55 °FLight rain. Passing clouds.15 mph94%29.68 "Hg5 mi
12:50 AM55 °FLight rain. Passing clouds.15 mph88%29.71 "Hg5 mi
12:20 AM55 °FLight rain. Passing clouds.16 mph88%29.71 "HgN/A
11:20 PM
Fri, Sep 4
55 °FLight rain. Passing clouds.21 mph88%29.74 "HgN/A
10:50 PM59 °FPassing clouds.20 mph72%29.74 "HgN/A
10:20 PM59 °FPartly cloudy.17 mph72%29.74 "HgN/A
9:50 PM59 °FPassing clouds.15 mph72%29.74 "HgN/A
9:20 PM59 °FPartly cloudy.23 mph72%29.77 "HgN/A
8:50 PM61 °FBroken clouds.17 mph68%29.77 "HgN/A
8:20 PM61 °FPartly sunny.16 mph68%29.77 "HgN/A
7:50 PM61 °FPartly sunny.14 mph68%29.77 "HgN/A
7:20 PM61 °FPartly sunny.15 mph68%29.77 "HgN/A
6:50 PM61 °FPartly sunny.16 mph68%29.77 "HgN/A
6:20 PM61 °FLight rain. Partly sunny.21 mph68%29.80 "HgN/A
Weather by CustomWeather, © 2015

See weather overviewHow to use our weather pages